Home   Weather   Cape Town   Past weeks

Flag for South Africa Past Weather in Cape Town, South Africa — Yesterday and Last 2 Weeks

Now
63 °F

Sunny.


Feels Like: 63 °F
Forecast: 52 / 62 °F
Wind: 5 mph from North

Location: Cape Town International Airport

Current Time: Jul 21, 2017 at 2:55:48 pm

Latest Report: Jul 21, 2017 at 2:00 pm


Visibility: 10 mi

Pressure: 30.12 "Hg

Humidity: 59%

Dew Point: 48 °F

Location of Cape TownLocation

Past Weather in Cape Town — Graph

°F

Cape Town Temperature Yesterday

Maximum temperature yesterday: 63 °F (at 4:00 pm)
Minimum temperature yesterday: 52 °F (at 10:00 pm)
Average temperature yesterday: 56 °F

High & Low Weather Summary for the Past Weeks

 TemperatureHumidityPressure
High75 °F (Jul 6, 2:00 pm)100% (Jul 7, 8:00 pm)30.51 "Hg (Jul 7, 8:00 pm)
Low34 °F (Jul 12, 4:00 am)29% (Jul 6, 2:00 pm)29.92 "Hg (Jul 8, 3:00 pm)
Average53 °F76%30.18 "Hg
* Reported Jul 6 1:00 pm — Jul 21 1:00 pm, Cape Town. Weather by CustomWeather, © 2017

Note: Actual official high and low records may vary slightly from our data, if they occured in-between our weather recording intervals... More about our weather records

Advertising

Cape Town Weather History for the Previous 24 Hours

Scroll right to see more
 ConditionsComfort  
Time TempWeatherWind HumidityBarometerVisibility
1:00 pm
Fri, Jul 21
61 °FSunny.3 mph59%30.15 "Hg10 mi
12:30 pm61 °FPassing clouds.3 mph63%30.15 "HgN/A
12:00 pm59 °FPassing clouds.7 mph68%30.18 "HgN/A
11:00 am57 °FSunny.2 mph72%30.18 "Hg10 mi
10:30 am55 °FSunny.2 mph88%30.18 "Hg10 mi
10:00 am52 °FSunny.2 mph94%30.21 "Hg10 mi
9:30 am50 °FSunny.3 mph94%30.21 "Hg10 mi
9:00 am46 °FSunny.3 mph93%30.21 "Hg10 mi
8:00 am46 °FClear.1 mph93%30.18 "Hg6 mi
7:00 am45 °FClear.2 mph93%30.18 "Hg10 mi
6:00 am45 °FClear.2 mph93%30.18 "Hg10 mi
5:00 am45 °FClear.5 mph93%30.18 "Hg10 mi
4:14 am45 °FLight fog.2 mph93%30.18 "Hg2 mi
4:02 am45 °FFog.2 mph93%30.21 "Hg1 mi
3:00 am46 °FFog.5 mph93%30.21 "Hg0 mi
2:00 am50 °FFog.2 mph94%30.24 "Hg0 mi
1:00 am50 °FFog.3 mph94%30.24 "Hg0 mi
12:00 am50 °FFog.3 mph94%30.24 "Hg0 mi
11:00 pm
Thu, Jul 20
52 °FFog.3 mph94%30.24 "Hg2 mi
10:00 pm52 °FPassing clouds.3 mph94%30.27 "HgN/A
8:00 pm55 °FPassing clouds.3 mph88%30.27 "HgN/A
7:00 pm57 °FPassing clouds.2 mph82%30.27 "HgN/A
6:00 pm59 °FPassing clouds.6 mph77%30.24 "HgN/A
5:00 pm61 °FPassing clouds.8 mph77%30.24 "HgN/A
4:00 pm63 °FPassing clouds.12 mph68%30.24 "HgN/A
3:00 pm61 °FScattered clouds.7 mph77%30.24 "HgN/A
2:00 pm59 °FBroken clouds.8 mph82%30.27 "HgN/A
Weather by CustomWeather, © 2017

See weather overviewHow to use our weather pages